Simultaneous Nadir Overpasses (SNOs) Predictions

Prediction of SNOs over PacNW region [( 10.00, 139.50) to ( 22.70, 165.60)] between AQUA and NPP Satellites:

Table of predicted SNOs over PacNW region for the next 30.0 days since TLE Epoch: 2/20/2021
Index Date (AQUA) Time (AQUA) AQUA Lat,Lon Date (NPP) Time (NPP) NPP Lat,Lon Distance(km) Time Diff (sec)
1 02/20/2021 15:59:20 22.61, 147.48 02/20/2021 16:01:22 23.28, 144.58 306.90 122
2 02/28/2021 15:09:53 22.62, 159.85 02/28/2021 15:10:37 23.20, 157.25 274.76 44
3 03/08/2021 15:59:18 22.63, 147.51 03/08/2021 16:01:19 23.26, 144.58 307.94 121
4 03/16/2021 15:09:50 22.58, 159.87 03/16/2021 15:10:33 23.18, 157.25 276.49 43
